Regional Weather Roundup
Issued by NWS

Home | Current Version | Previous Version | Text Only | Print | Product List | Glossary On
Versions: 1 2 3 4 5 6 7 8 9 10 11 12 13 14 15 16 17 18 19 20 21 22 23 24 25 26 27 28 29 30 31 32 33 34 35 36 37 38 39 40 41 42 43 44 45 46 47 48 49 50
000
ASUS43 KMKX 270020
RWRWI

WISCONSIN REGIONAL WEATHER ROUNDUP
NATIONAL WEATHER SERVICE MILWAUKEE/SULLIVAN WI
700 PM CDT THU MAR 26 2015

NOTE: "FAIR" INDICATES FEW OR NO CLOUDS BELOW 12,000 FEET WITH NO
SIGNIFICANT WEATHER AND/OR OBSTRUCTIONS TO VISIBILITY.

WIZ001-002-006>008-014>016-023>028-270100-
NORTHWEST WISCONSIN

CITY           SKY/WX    TMP DP  RH WIND       PRES   REMARKS
SUPERIOR ARPT  CLEAR     29   3  32 N13       30.16R WCI  19
6HR MIN TEMP:  29; 6HR MAX TEMP:  33;

ASHLAND        CLEAR     25   7  46 NE12      30.15R WCI  14
6HR MIN TEMP:  25; 6HR MAX TEMP:  31;

HAYWARD        PTCLDY    27   3  35 N12       30.10R WCI  17
6HR MIN TEMP:  26; 6HR MAX TEMP:  31;

SIREN          CLEAR     31   0  26 N10       30.12R WCI  22
6HR MIN TEMP:  31; 6HR MAX TEMP:  34;

CUMBERLAND     CLEAR     30   1  29 N16       30.08R WCI  19
RICE LAKE      CLEAR     31   7  35 N10G16    30.09S WCI  23
6HR MIN TEMP:  30; 6HR MAX TEMP:  34;

CHETEK         CLEAR     30   9  42 N8G17     30.08S WCI  22
6HR MIN TEMP:  30; 6HR MAX TEMP:  32;

LADYSMITH      PTCLDY    29   8  41 N13       30.09R WCI  19
6HR MIN TEMP:  28; 6HR MAX TEMP:  31;

EAU CLAIRE     CLOUDY    31  13  47 N7        30.08R WCI  24
6HR MIN TEMP:  31; 6HR MAX TEMP:  34;

MENOMONIE      CLOUDY    33  14  45 N7        30.08R WCI  27
6HR MIN TEMP:  33; 6HR MAX TEMP:  35;

NEW RICHMOND   PTCLDY    32   5  32 NW15      30.10R WCI  21
6HR MIN TEMP:  32; 6HR MAX TEMP:  35;

OSCEOLA        CLEAR     33   6  32 NW9G16    30.14R WCI  25
6HR MIN TEMP:  32; 6HR MAX TEMP:  37;

$$

WIZ003>005-009-010-017-018-270100-
NORTH CENTRAL WISCONSIN

CITY           SKY/WX    TMP DP  RH WIND       PRES   REMARKS
MANITOWISH WTR PTCLDY    19   3  50 N8G16     30.06S WCI   9
6HR MIN TEMP:  19; 6HR MAX TEMP:  22;

ARBOR VITAE    PTCLDY    19   5  53 NW9       30.06S WCI   9
6HR MIN TEMP:  19; 6HR MAX TEMP:  23;

WOODRUFF       PTCLDY    19   5  53 NW9       30.06S WCI   9
6HR MIN TEMP:  19; 6HR MAX TEMP:  23;

RHINELANDER    CLOUDY    20   8  60 N10G18    30.05R WCI   9
6HR MIN TEMP:  20; 6HR MAX TEMP:  25; 6HR PCP: TRACE;

EAGLE RIVER    CLOUDY    19   7  59 N13       30.05R WCI   5
6HR MIN TEMP:  19; 6HR MAX TEMP:  23;

LAND O LAKES   CLOUDY    18   7  64 N10       30.07R WCI   6
6HR MIN TEMP:  18; 6HR MAX TEMP:  22;

PHILLIPS       PTCLDY    22   7  52 N10       30.06R WCI  11
6HR MIN TEMP:  22; 6HR MAX TEMP:  25;

TOMAHAWK       PTCLDY    21   7  53 NW12G17   30.07R WCI   9
6HR MIN TEMP:  21; 6HR MAX TEMP:  26;

MEDFORD        CLOUDY    25  10  54 N10G16    30.05R WCI  14
6HR MIN TEMP:  25; 6HR MAX TEMP:  27;

MERRILL        CLOUDY    24  10  53 N12G17    30.06R WCI  13
6HR MIN TEMP:  24; 6HR MAX TEMP:  28;

$$

WIZ029-030-035-036-043>047-270100-
CENTRAL WISCONSIN

CITY           SKY/WX    TMP DP  RH WIND       PRES   REMARKS
WAUSAU         CLOUDY    25  11  55 N14G22    30.04R WCI  13
6HR MIN TEMP:  25; 6HR MAX TEMP:  30;

MOSINEE        CLOUDY    27  12  54 N15       30.06R WCI  15
MARSHFIELD     CLOUDY    28  15  58 N12       30.05R WCI  18
6HR MIN TEMP:  28; 6HR MAX TEMP:  32;

STEVENS POINT  CLOUDY    26  12  53 NW12      30.06R WCI  16
6HR MIN TEMP:  26; 6HR MAX TEMP:  29;

WAUPACA        CLOUDY    32  14  47 NW12      30.05R WCI  23
6HR MIN TEMP:  32; 6HR MAX TEMP:  34;

WAUTOMA        CLOUDY    30  14  51 N8G18     30.06R WCI  22
6HR MIN TEMP:  30; 6HR MAX TEMP:  33;

WISC RAPIDS    CLOUDY    29  12  49 N10       30.07R WCI  20
6HR MIN TEMP:  29; 6HR MAX TEMP:  33;

CAMP DOUGLAS   MIX PCPN  32  19  59 N14       30.06R WCI  22
6HR MIN TEMP:  31; 6HR MAX TEMP:  37; 6HR PCP: TRACE;

$$

WIZ011>013-019>022-031-037>040-048>050-270100-
NORTHEAST WISCONSIN

CITY           SKY/WX    TMP DP  RH WIND       PRES   REMARKS
ANTIGO         CLOUDY    22  11  62 N15       30.04R WCI   8
6HR MIN TEMP:  22; 6HR MAX TEMP:  26;

SHAWANO        CLOUDY    30  14  51 N12G17    30.06R WCI  20
6HR MIN TEMP:  30; 6HR MAX TEMP:  34;

OCONTO         CLOUDY    27  15  59 N13       30.06R WCI  17
6HR MIN TEMP:  27; 6HR MAX TEMP:  33;

STURGEON BAY   CLOUDY    27  10  50 N15G21    30.07R WCI  15
6HR MIN TEMP:  27; 6HR MAX TEMP:  30;

GREEN BAY      CLOUDY    31  17  56 N12       30.04R WCI  22
6HR MIN TEMP:  31; 6HR MAX TEMP:  34;

MANITOWOC      FLURRIES  30  21  69 N9        30.04R WCI  22
6HR MIN TEMP:  30; 6HR MAX TEMP:  34; 6HR PCP: TRACE;

APPLETON       CLOUDY    30  12  47 N13       30.04R WCI  20
CLINTONVILLE   CLOUDY    30  12  47 N10G17    30.05R WCI  21
OSHKOSH        CLOUDY    31  15  52 N14       30.03R WCI  21
6HR MIN TEMP:  31; 6HR MAX TEMP:  34;

$$

WIZ032>034-041-042-053>061-270100-
SOUTHWEST WISCONSIN

CITY           SKY/WX    TMP DP  RH WIND       PRES   REMARKS
LA CROSSE      CLOUDY    35  19  52 N9        30.08R WCI  28
6HR MIN TEMP:  35; 6HR MAX TEMP:  38;

SPARTA         CLOUDY    32  15  50 N8        30.08R WCI  25
6HR MIN TEMP:  32; 6HR MAX TEMP:  35;

VIROQUA        CLOUDY    32  19  59 N9        30.05R WCI  24
6HR MIN TEMP:  32; 6HR MAX TEMP:  32;

BOSCOBEL       CLOUDY    35  19  52 NW8       30.07R WCI  29
6HR MIN TEMP:  35; 6HR MAX TEMP:  36;

PRAIRIE DU CHI MOCLDY    33  19  56 NW10      30.08R WCI  25
6HR MIN TEMP:  33; 6HR MAX TEMP:  35;

PLATTEVILLE    CLOUDY    33  21  61 NW8       30.05R WCI  26
6HR MIN TEMP:  33; 6HR MAX TEMP:  38;

$$

WIZ056-057-062-063-064-067-068-270100-
SOUTH CENTRAL WISCONSIN

CITY           SKY/WX    TMP DP  RH WIND       PRES   REMARKS
REEDSBURG      CLOUDY    32  17  53 N12G18    30.04R WCI  23
6HR MIN TEMP:  32; 6HR MAX TEMP:  38;

BARABOO/DELLS  CLOUDY    32  17  52 N10       30.04R WCI  24
6HR MIN TEMP:  32; 6HR MAX TEMP:  35;

LONE ROCK      CLOUDY    35  17  47 N8        30.05R WCI  29
6HR MIN TEMP:  35; 6HR MAX TEMP:  40;

MINERAL POINT  CLOUDY    34  21  60 NW9       30.03R WCI  26
MADISON        MOCLDY    34  18  52 N10       30.03R WCI  26
6HR MIN TEMP:  34; 6HR MAX TEMP:  37;

MIDDLETON      CLOUDY    35  19  52 NW13      30.03R WCI  26
6HR MIN TEMP:  35; 6HR MAX TEMP:  37;

WATERTOWN      CLOUDY    31  18  58 N9G18     30.03R WCI  22
6HR MIN TEMP:  31; 6HR MAX TEMP:  36;

MONROE         CLOUDY    34  23  64 NW7       30.01S WCI  28
JANESVILLE     CLOUDY    36  21  55 NW8       30.01S WCI  29
$$

WIZ051-052-058>065-066-070>072-270100-
SOUTHEAST WISCONSIN

CITY           SKY/WX    TMP DP  RH WIND       PRES   REMARKS
MILWAUKEE      CLOUDY    34  16  47 NW12      30.02R WCI  25
6HR MIN TEMP:  34; 6HR MAX TEMP:  38;

WAUKESHA       CLOUDY    30  18  59 NW14      30.03R WCI  20
MILWAUKEE/TIMM CLOUDY    32  18  55 N13       30.03R WCI  22
RACINE         CLOUDY    34  19  54 N10       30.03R WCI  26
6HR MIN TEMP:  34; 6HR MAX TEMP:  39;

BURLINGTON     CLOUDY    32  20  62 N6        30.02R WCI  26
6HR MIN TEMP:  32; 6HR MAX TEMP:  36;

KENOSHA        CLOUDY    35  22  58 N9        30.01R WCI  28
6HR MIN TEMP:  35; 6HR MAX TEMP:  40;

FOND DU LAC    CLOUDY    31  16  54 N13       30.04R WCI  21
6HR MIN TEMP:  31; 6HR MAX TEMP:  35;

SHEBOYGAN      CLOUDY    31  20  63 N10       30.03R WCI  22
6HR MIN TEMP:  31; 6HR MAX TEMP:  34;

WEST BEND      CLOUDY    30  18  59 NW14      30.03R WCI  20
JUNEAU         CLOUDY    30  17  57 NW13      30.04S WCI  20
6HR MIN TEMP:  30; 6HR MAX TEMP:  33;

$$

LSZ147-162-270100-
LAKE SUPERIOR

STATION/POSITION TIME  TEMP    WIND        PRES    WAVE
                       AIR SEA DIR/SP/G            HT/PER
                 (UTC) (F)     (DEG/KT/KT) (MB)    (FT/S)
DEVILS ISLAND    0000   26     360/ 17/ 19 1022.3R
PORT WING        2340   28      30/  5/  7 1021.3R
SAXON HARBOR     2300   25      20/  8/ 10 1020.7
$$

LMZ867-665-643>646-270100-
LAKE MICHIGAN

STATION/POSITION TIME  TEMP    WIND        PRES    WAVE



USA.gov is the U.S. government's official web portal to all federal, state and local government web resources and services.